Las Vegas, NM

11:10 PM MDT on October 19, 2017 (GMT -0600)
Las Vegas Municipal

Weather History for KLVS - September, 2013

Change the Weather History Date:

Monday, September 16, 2013

  Actual Average Record
Temperature  
Mean Temperature 58 °F -  
Max Temperature 64 °F 75 °F 90 °F (1956)
Min Temperature 52 °F 46 °F 30 °F (1951)
Degree Days  
Heating Degree Days 7    
Growing Degree Days 8 (Base 50)    
Moisture  
Dew Point 53 °F    
Average Humidity 87    
Maximum Humidity 97    
Minimum Humidity 67    
Precipitation  
Precipitation 0.09 in - - ()
Sea Level Pressure  
Sea Level Pressure 30.18 in    
Wind  
Wind Speed 6 mph (South)    
Max Wind Speed 20 mph    
Max Gust Speed -    
Visibility 10 miles    
Events Rain    
Averages and records for this station are not official NWS values.
T = Trace of Precipitation, MM = Missing Value Source: NWS Daily Summary

Daily Weather History Graph

Daily Weather History Graph

Search for Another Location

Airport or City:

Trip Planner

Search our weather history database for the weather conditions in past years. The results will help you decide how hot, cold, wet, or windy it might be!

Date:

Astronomy

Sep. 16, 2013 Rise Set
Actual Time 6:44 AM MDT 7:05 PM MDT
Civil Twilight 6:18 AM MDT 7:31 PM MDT
Nautical Twilight 5:48 AM MDT 8:01 PM MDT
Astronomical Twilight 5:18 AM MDT 8:31 PM MDT
Moon 5:12 PM MDT (9/16) 3:38 AM MDT (9/16)
Length of Visible Light 13h 12m
Length of Day
12h 21m
Waxing Gibbous, 90% of the Moon is Illuminated
Sep 16
Waxing Gibbous
Sep 19
Full
Sep 26
Last Quarter
Oct 4
New
Oct 11
First Quarter

Hourly Weather History & Observations

Time (MDT) Temp. Dew Point Humidity Pressure Visibility Wind Dir Wind Speed Gust Speed Precip Events Conditions
12:53 AM 53.1 °F 50.0 °F 89% 30.08 in 10.0 mi Calm Calm - 0.01 in   Partly Cloudy
1:53 AM 53.1 °F 52.0 °F 96% 30.08 in 10.0 mi Calm Calm - 0.00 in Rain Light Rain
2:53 AM 53.1 °F 52.0 °F 96% 30.07 in 9.0 mi North 10.4 mph - 0.07 in Rain Light Rain
3:53 AM 53.1 °F 51.1 °F 93% 30.10 in 10.0 mi North 5.8 mph - 0.01 in   Overcast
4:53 AM 52.0 °F 51.1 °F 97% 30.10 in 10.0 mi NE 3.5 mph - N/A   Mostly Cloudy
5:53 AM 52.0 °F 50.0 °F 93% 30.13 in 10.0 mi North 3.5 mph - N/A   Mostly Cloudy
6:53 AM 52.0 °F 50.0 °F 93% 30.14 in 10.0 mi Calm Calm - N/A   Scattered Clouds
7:53 AM 54.0 °F 51.1 °F 90% 30.16 in 10.0 mi Calm Calm - 0.00 in Rain Light Rain
8:33 AM 53.6 °F 51.8 °F 94% 30.38 in 10.0 mi Calm Calm - 0.00 in   Overcast
8:53 AM 54.0 °F 51.1 °F 90% 30.17 in 10.0 mi Calm Calm - 0.00 in   Overcast
9:19 AM 55.4 °F 51.8 °F 88% 30.39 in 10.0 mi South 5.8 mph - N/A   Overcast
9:29 AM 55.4 °F 53.6 °F 94% 30.39 in 10.0 mi South 8.1 mph - N/A   Overcast
9:53 AM 55.9 °F 53.1 °F 90% 30.17 in 10.0 mi South 8.1 mph - N/A   Mostly Cloudy
10:07 AM 55.4 °F 53.6 °F 94% 30.39 in 10.0 mi South 6.9 mph - N/A   Mostly Cloudy
10:50 AM 57.2 °F 53.6 °F 88% 30.39 in 10.0 mi South 10.4 mph - N/A   Overcast
10:53 AM 57.0 °F 53.1 °F 87% 30.17 in 10.0 mi South 11.5 mph - N/A   Overcast
11:13 AM 57.2 °F 53.6 °F 88% 30.40 in 10.0 mi South 11.5 mph - N/A   Overcast
11:53 AM 59.0 °F 55.0 °F 87% 30.17 in 10.0 mi South 16.1 mph - N/A   Overcast
12:43 PM 62.6 °F 55.4 °F 77% 30.38 in 10.0 mi South 16.1 mph - N/A   Mostly Cloudy
12:53 PM 62.1 °F 55.0 °F 78% 30.13 in 10.0 mi South 16.1 mph - N/A   Overcast
1:14 PM 62.6 °F 55.4 °F 77% 30.37 in 10.0 mi South 19.6 mph - N/A   Mostly Cloudy
1:48 PM 60.8 °F 55.4 °F 82% 30.36 in 10.0 mi South 17.3 mph - N/A   Overcast
1:53 PM 61.0 °F 55.0 °F 81% 30.12 in 10.0 mi South 16.1 mph - N/A   Mostly Cloudy
2:53 PM 62.1 °F 54.0 °F 75% 30.09 in 10.0 mi SSW 13.8 mph - N/A   Mostly Cloudy
3:53 PM 64.0 °F 54.0 °F 70% 30.06 in 10.0 mi SSW 11.5 mph - N/A   Overcast
4:53 PM 64.0 °F 53.1 °F 67% 30.04 in 10.0 mi SSW 13.8 mph - N/A   Clear
5:53 PM 64.0 °F 54.0 °F 70% 30.04 in 10.0 mi South 13.8 mph - N/A   Clear
6:53 PM 60.1 °F 55.0 °F 83% 30.06 in 10.0 mi South 10.4 mph - N/A   Clear
7:53 PM 57.0 °F 55.0 °F 93% 30.07 in 10.0 mi South 10.4 mph - N/A   Clear
8:53 PM 55.9 °F 55.0 °F 97% 30.10 in 9.0 mi South 10.4 mph - N/A   Clear
9:53 PM 55.0 °F 54.0 °F 96% 30.11 in 7.0 mi SSW 6.9 mph - N/A   Clear
10:53 PM 55.0 °F 54.0 °F 96% 30.10 in 4.0 mi SSW 8.1 mph - N/A   Clear
11:53 PM 55.0 °F 54.0 °F 96% 30.09 in 6.0 mi SSW 8.1 mph - N/A   Mostly Cloudy